Regional Weather Roundup
Issued by NWS

Home | Current Version | Previous Version | Graphics & Text | Print | Product List | Glossary On
Versions: 1 2 3 4 5 6 7 8 9 10 11 12 13 14 15 16 17 18 19 20 21 22 23 24 25 26 27 28 29 30 31 32 33 34 35 36 37 38 39 40 41 42 43 44 45 46 47 48 49 50
000
ASUS43 KFSD 270202
RWRSD

WEATHER ROUNDUP FOR SOUTH DAKOTA
NATIONAL WEATHER SERVICE SIOUX FALLS SD
900 PM CDT WED JUL 26 2017

NOTE: "FAIR" INDICATES FEW OR NO CLOUDS BELOW 12,000 FEET WITH NO
SIGNIFICANT WEATHER AND/OR OBSTRUCTIONS TO VISIBILITY.


SDZ001>005-009-010-012>017-270300-
NORTHWEST AND NORTH CENTRAL SOUTH DAKOTA

CITY           SKY/WX    TMP DP  RH WIND       PRES   REMARKS
BUFFALO          N/A     83  51  33 S12       30.04S
FAITH            N/A     81  51  35 E8        30.10S
MOBRIDGE       CLEAR     77  62  59 E7        30.06S
$$

SDZ012>016-024>037-041>051-057-063-072>074-270300-
SOUTHWEST AND SOUTH CENTRAL SOUTH DAKOTA

CITY           SKY/WX    TMP DP  RH WIND       PRES   REMARKS
RAPID CTY ARPT MOCLDY    80  50  34 E9        30.13R
PIERRE         CLEAR     80  54  40 E7        30.07R
CUSTER         MOCLDY    71  46  40 SE7       30.28S
PHILIP         CLEAR     82  52  35 E8        30.09R
PINE RIDGE     CLOUDY    78  56  46 SE8       30.15R
SPEARFISH      FAIR      79  48  34 SE9       30.16S
WINNER         FAIR      78  58  49 E7        30.11R
$$

SDZ004>011-016>023-039-040-270300-
NORTHEAST SOUTH DAKOTA

CITY           SKY/WX    TMP DP  RH WIND       PRES   REMARKS
ABERDEEN       CLEAR     75  62  64 E3        30.08R
WATERTOWN      CLEAR     71  61  70 NE7       30.08R
BROOKINGS      CLEAR     74  60  61 NE3       30.08R
SISSETON         N/A     73  65  75 N3        30.05S
$$

SDZ017-020-022-023-036>040-048>070-270300-
SOUTHEAST SOUTH DAKOTA

CITY           SKY/WX    TMP DP  RH WIND       PRES   REMARKS
SIOUX FALLS    PTCLDY    71  64  78 N5        30.06R
HURON          CLEAR     76  60  57 NE5       30.07R
CHAMBERLAIN    CLEAR     79  61  54 CALM      30.09S
MITCHELL       CLEAR     75  66  73 NE3       30.07R
YANKTON        CLEAR     76  64  66 N8        30.05R
$$

ABBREVIATIONS USED IN REMARKS
   TC - TEMPERATURE IN CELSIUS
  WCI - WIND CHILL INDEX
   HX - HEAT INDEX
  VSB - VISIBILITY





USA.gov is the U.S. government's official web portal to all federal, state and local government web resources and services.